Wind_Gust
13 13 14 14 13 13 14 14 12 14 12 12 13 10 11 9 11 12 11 11 10 11 11 12 12 13 15 15 15 16 16 16 16 16 18 19 18 17 18 15 14 14
13 14 14 14 13 12 13 13 13 14 14 12 10 10 11 12 11 12 12 11 12 12 12 13 13 14 15 15 15 17 17 17 17 16 19 17 15 16 15 15 14 13
13 14 15 15 16 14 14 13 14 13 14 11 10 13 13 12 12 11 12 12 13 13 13 13 15 15 15 15 15 16 16 16 16 15 17 15 14 15 14 14 13 12
13 15 15 15 15 15 13 16 14 12 11 13 12 13 14 12 13 13 13 12 13 13 13 14 14 15 15 15 16 16 15 15 13 14 16 15 15 14 14 12 13 14
15 15 14 15 14 14 14 17 15 12 13 14 14 13 15 14 14 13 13 12 12 13 14 14 14 15 15 15 14 16 15 15 14 15 15 15 13 14 13 12 12 14
13 14 15 15 14 15 16 16 14 14 15 15 14 14 14 14 13 12 12 13 12 14 14 14 15 14 15 15 16 16 15 15 14 14 15 15 12 12 13 13 13 15
15 14 14 14 14 14 16 14 15 16 16 14 15 15 14 14 13 12 12 12 13 14 14 14 14 14 13 16 16 16 15 14 13 14 15 13 13 14 12 13 14 15
14 12 13 13 14 14 15 15 16 16 15 16 16 13 14 14 13 11 11 13 15 14 14 14 14 14 13 15 16 15 14 13 13 13 13 13 13 14 13 13 12 14
14 13 14 14 15 14 16 16 17 15 16 18 16 14 13 13 12 12 12 14 15 14 14 14 14 14 13 15 14 14 14 12 11 11 13 14 14 13 12 10 12 13
14 14 15 14 15 14 16 15 16 16 16 17 15 15 16 12 12 12 13 14 15 14 13 13 14 14 13 12 13 13 14 13 11 12 12 12 11 11 10 11 11 11
13 13 15 15 14 15 15 16 16 16 17 16 16 16 14 14 12 10 13 13 15 13 13 14 12 13 13 12 11 11 12 12 10 10 11 11 9 8 10 8 10 10
14 14 15 15 15 15 15 16 17 16 16 15 16 16 14 12 12 11 13 13 12 12 13 12 12 12 11 12 12 12 12 11 10 10 10 9 8 7 6 6 7 6
15 15 17 16 15 14 15 16 17 16 17 16 15 15 14 14 12 13 11 12 11 11 12 12 11 10 11 11 11 11 11 11 10 10 9 9 7 7 7 5 5 4
14 14 16 16 15 15 16 16 16 16 16 15 14 14 14 13 13 13 11 11 11 12 10 11 11 11 9 9 9 10 10 10 9 9 9 8 7 6 5 5 5 5
14 13 15 16 17 16 17 17 17 16 15 15 14 13 13 12 10 11 13 13 11 11 10 10 12 10 7 9 11 9 9 10 9 9 9 9 7 5 5 6 6 6
15 14 16 16 17 17 17 17 17 16 16 15 14 13 12 11 11 11 12 12 12 11 11 12 10 7 8 9 8 10 9 9 9 8 7 7 6 6 7 7 7 7
16 16 17 17 16 17 17 18 17 16 16 15 13 12 12 11 12 13 11 11 11 12 12 10 8 6 7 8 10 11 9 8 8 7 6 5 5 6 6 8 9 8
16 16 17 17 17 18 17 16 16 17 16 14 14 12 11 11 13 11 10 10 11 11 11 9 7 7 9 10 10 10 9 9 7 7 5 4 3 4 5 6 8 10
16 17 18 17 17 17 17 17 17 17 16 15 13 11 10 12 10 11 10 9 11 12 10 7 6 7 11 13 13 13 13 10 6 6 6 4 2 2 4 6 7 10
16 17 17 17 16 16 16 16 16 16 14 13 12 10 12 11 9 10 9 10 11 11 9 8 8 8 11 14 15 15 14 9 4 5 5 3 3 4 6 7 7 7
17 18 18 17 17 16 16 16 16 15 15 13 13 12 12 12 11 11 9 9 9 9 11 11 8 7 13 16 17 17 15 9 5 4 2 3 5 5 5 6 7 8
18 18 18 17 17 16 17 16 15 16 15 12 12 11 9 10 8 10 10 10 8 11 13 10 7 9 14 17 17 16 13 9 6 5 4 4 5 6 7 7 7 6
19 19 18 17 17 17 17 16 16 14 12 13 15 12 12 10 9 8 8 10 10 11 13 9 8 9 12 15 16 15 12 9 7 7 5 5 5 6 7 7 7 6
17 19 19 17 17 18 17 15 14 13 14 14 16 13 12 10 10 10 7 9 11 10 11 11 7 8 11 12 12 12 11 11 8 9 5 5 6 6 7 6 8 13
16 16 17 17 17 17 18 17 16 16 13 13 13 12 12 10 10 12 7 7 8 8 11 12 8 7 10 11 11 10 11 9 10 8 7 5 7 9 7 6 10 10
23 19 16 17 17 15 15 16 15 15 14 14 12 12 12 10 9 11 11 7 7 8 9 8 10 7 8 10 10 9 9 10 6 10 5 3 6 5 9 10 8 10
Wind_Speed
7 7 8 8 7 7 7 7 5 6 5 5 6 5 5 3 4 5 4 5 5 7 7 7 8 8 8 8 8 8 8 9 8 8 9 9 8 8 8 8 8 7
8 9 8 8 7 6 6 6 6 6 6 5 6 5 4 4 4 4 5 6 7 8 8 8 8 8 8 7 8 9 8 9 9 6 9 9 7 8 9 9 8 6
9 9 10 9 9 8 7 6 6 5 6 6 6 6 5 4 5 5 6 7 8 8 8 8 8 8 9 8 9 9 8 9 9 8 9 8 7 8 8 8 7 8
9 9 9 9 9 9 7 7 6 6 6 7 6 6 5 5 5 6 7 7 8 8 7 8 8 8 9 9 9 9 9 8 7 8 8 8 8 8 8 6 7 7
10 9 9 9 8 8 7 7 6 6 8 7 7 6 6 6 6 7 7 7 7 7 8 8 8 8 9 9 9 9 8 8 7 7 8 9 7 7 6 7 7 7
8 9 9 9 8 8 7 7 8 9 8 7 6 6 6 6 7 7 7 7 7 8 8 8 9 8 9 9 8 7 7 8 7 8 9 9 7 6 6 6 6 7
9 9 9 8 8 8 9 8 8 8 7 6 6 6 6 7 7 7 7 7 8 8 9 8 9 8 7 8 8 8 8 8 8 8 9 7 7 7 5 5 5 6
9 8 8 8 9 8 9 9 8 8 7 6 8 5 7 8 7 6 6 8 9 9 9 9 8 8 7 7 8 9 8 7 8 8 8 7 6 6 5 5 5 6
8 8 8 9 10 9 10 9 8 7 6 8 7 6 6 7 7 7 8 9 9 8 8 8 8 7 7 7 8 8 9 7 7 7 7 7 7 6 5 4 6 5
8 8 9 9 9 8 10 8 7 6 6 8 7 7 8 6 6 7 8 9 9 8 8 7 7 7 7 7 8 8 8 8 6 6 6 6 6 5 5 5 4 5
9 8 9 9 9 8 9 8 7 7 6 8 7 8 7 7 6 6 8 8 9 8 8 7 7 7 8 7 7 7 8 7 6 6 5 5 4 4 4 3 3 3
9 9 10 10 10 9 8 8 7 7 7 6 8 9 7 6 7 6 7 8 7 7 7 6 6 6 7 7 7 7 7 7 6 5 5 4 4 3 3 2 2 3
9 9 10 10 9 8 8 7 7 7 7 7 6 8 8 8 7 8 5 8 7 7 7 7 6 6 7 7 7 7 7 7 6 5 4 4 3 3 3 2 3 3
8 9 10 10 9 9 8 8 7 7 7 7 7 8 7 7 8 8 6 6 6 6 5 6 6 6 6 6 6 6 6 6 6 5 4 3 3 3 3 3 3 4
8 8 9 10 10 10 9 8 8 7 7 7 7 7 6 6 6 7 8 7 6 6 6 5 7 6 4 6 6 6 5 6 5 5 4 4 3 3 4 4 4 4
9 9 9 10 10 10 9 8 8 7 7 7 7 7 6 6 6 6 7 7 7 6 6 6 5 3 4 8 7 6 6 5 4 4 4 3 4 4 5 4 4 5
10 9 10 10 9 9 9 9 8 7 7 7 7 6 6 5 6 7 6 6 7 6 6 5 4 3 6 8 9 10 6 5 5 3 3 4 4 4 4 5 6 5
10 10 10 10 10 10 9 8 8 8 7 7 7 7 5 6 7 6 6 5 6 6 5 4 4 4 8 9 9 9 7 5 4 4 3 2 2 3 3 4 5 6
9 10 11 10 10 9 9 8 9 8 7 7 7 5 5 7 6 6 5 5 6 6 5 3 3 5 9 11 10 10 8 6 4 3 3 1 1 2 3 4 4 6
10 11 11 10 9 9 9 9 9 8 6 5 6 5 7 6 5 6 5 5 6 6 4 4 3 3 10 12 12 11 9 6 3 2 1 0 1 3 4 4 5 4
11 11 11 10 10 9 9 9 9 8 7 6 6 6 7 7 7 6 5 5 5 5 5 4 3 3 11 13 13 11 9 6 3 2 2 2 3 3 3 4 4 4
11 11 11 10 10 9 9 9 8 8 8 6 6 5 5 5 4 5 6 6 5 6 6 5 3 4 11 14 14 12 9 4 3 3 2 2 3 4 4 3 3 4
12 12 10 10 10 10 10 9 9 8 6 5 7 6 6 6 5 4 5 6 5 6 8 4 4 3 9 13 13 12 8 4 4 4 3 3 3 3 3 3 4 4
11 12 12 10 10 10 10 8 8 7 7 6 8 8 7 6 5 5 4 5 6 6 7 6 4 3 8 10 11 10 8 6 4 5 3 3 4 3 4 4 4 8
10 10 10 10 10 9 9 10 9 8 6 6 6 6 6 6 5 6 4 4 5 5 8 8 5 4 6 9 9 9 8 5 6 5 4 3 5 5 4 4 5 5
13 12 9 10 9 8 8 8 7 7 7 7 6 6 7 6 5 6 6 4 4 5 5 5 6 4 4 8 8 8 8 6 4 6 2 1 3 3 5 5 5 5
Wind_Direction
116 116 118 118 121 126 130 128 125 123 121 116 111 102 100 112 96 90 91 82 74 65 59 62 69 75 76 74 76 77 75 74 70 67 67 66 60 60 58 53 51 49
116 116 116 116 114 114 116 123 128 129 125 109 102 104 99 92 79 87 82 74 64 65 70 75 79 82 81 79 77 78 73 71 71 64 68 63 59 55 51 45 46 41
118 119 124 128 129 127 126 120 121 119 109 106 104 101 100 92 88 76 74 73 75 75 78 84 83 82 82 79 75 74 73 72 71 66 68 63 56 55 49 47 45 42
120 125 126 125 127 129 126 119 112 105 106 102 105 108 102 97 89 80 72 75 83 83 84 82 84 82 80 79 79 74 73 72 72 72 69 61 54 53 48 49 51 49
127 124 123 123 124 123 120 117 110 107 103 107 106 104 101 99 92 85 84 81 86 87 82 82 80 81 80 76 77 80 75 75 67 68 68 65 53 54 50 54 56 58
117 122 125 126 128 127 117 111 112 109 110 105 108 101 98 96 92 90 90 90 86 87 85 83 82 79 80 81 79 80 80 75 67 69 70 66 61 52 56 53 58 60
122 121 120 121 118 111 109 109 107 105 103 111 104 99 105 93 90 88 86 89 87 83 85 85 85 82 80 84 86 85 78 75 71 69 72 67 65 59 51 54 53 57
114 114 116 114 107 104 105 107 106 105 112 105 98 99 101 96 91 89 90 90 88 85 85 86 85 87 89 88 89 86 80 74 74 73 73 70 66 63 51 47 48 52
110 110 108 103 104 105 106 108 107 109 113 107 104 98 85 91 96 93 93 91 89 89 90 88 90 93 92 92 88 86 85 79 75 76 76 74 68 62 56 49 49 45
108 109 104 105 105 109 109 108 108 105 106 101 101 97 93 85 87 94 93 93 94 92 93 97 96 96 93 90 90 88 88 86 80 76 75 73 74 67 56 51 50 43
116 113 111 109 110 112 109 108 106 106 104 108 105 96 96 97 89 89 94 94 99 102 102 100 104 102 97 90 86 86 89 89 84 79 73 68 63 59 56 55 43 49
124 120 119 119 118 114 114 113 112 111 108 104 109 106 99 95 100 95 100 101 102 104 105 105 99 96 95 96 94 92 89 86 85 82 76 70 62 52 44 26 33 7
130 129 126 123 120 118 115 113 111 112 110 110 109 108 110 107 102 101 98 106 108 107 106 104 97 90 92 92 94 95 97 95 89 83 73 67 53 42 25 15 6 348
131 129 125 122 120 117 115 114 114 112 109 109 108 106 108 111 113 110 109 104 108 105 103 100 95 88 85 88 92 100 101 99 99 95 86 66 46 23 11 6 358 353
127 124 123 122 120 119 118 117 116 115 112 110 109 107 104 104 106 112 112 103 95 98 94 88 88 87 96 106 104 97 102 106 105 102 96 82 46 26 11 9 7 3
128 126 125 123 123 120 120 119 117 116 112 109 106 106 106 106 104 102 103 109 106 96 90 85 82 85 92 108 115 118 112 108 102 99 98 86 64 39 19 14 11 7
128 127 126 125 124 121 121 120 118 117 113 110 108 108 107 106 104 100 99 102 104 105 96 90 90 102 121 122 120 118 115 113 113 107 93 78 64 52 28 7 1 358
131 129 126 127 126 125 124 122 120 118 117 117 115 110 107 104 99 101 103 103 99 94 93 98 102 123 139 135 132 126 122 118 119 118 102 82 57 39 17 11 357 354
130 129 129 129 129 127 125 122 120 119 120 121 118 120 113 105 109 106 102 101 99 96 90 89 103 142 149 146 144 135 128 122 123 126 116 124 32 6 359 1 3 359
131 130 131 130 130 127 125 124 123 123 122 119 119 114 111 109 107 105 104 99 101 100 96 86 82 141 154 151 146 137 132 122 121 109 105 64 346 343 341 353 357 356
134 132 131 133 132 129 127 126 125 123 121 124 124 128 125 124 124 114 108 104 100 100 94 72 40 117 150 143 141 136 126 116 103 82 53 18 349 340 331 339 342 345
133 133 136 137 136 133 131 131 131 131 130 131 118 110 106 107 98 106 110 107 108 105 95 74 39 88 135 134 135 133 122 104 98 76 43 6 344 337 346 337 336 341
140 138 140 142 140 137 137 138 135 130 127 128 119 122 123 118 124 118 124 118 112 105 100 87 65 74 122 127 129 126 110 105 97 78 44 19 343 333 330 337 336 333
139 140 143 145 145 144 143 140 134 128 133 138 132 133 125 130 126 113 113 122 118 112 115 109 86 76 109 115 124 128 128 124 111 95 53 16 338 339 349 352 336 359
139 139 141 144 146 145 144 142 143 142 137 127 126 120 124 127 121 115 107 99 113 117 115 109 106 84 94 109 117 126 120 115 111 100 70 12 10 355 344 355 349 349
147 143 142 143 143 141 145 142 138 131 135 133 127 126 127 124 120 119 115 108 100 100 98 113 112 97 98 108 112 113 118 117 118 97 93 26 11 16 356 342 347 340